Location: Anaheim Mobile Home Estates
(33.8153°N, 117.9967°W)
Time: 10:46:19
(UTC+00:00)

ISS - Visible Passes

Search period start: 12 October 2024 00:00
Search period end: 22 October 2024 00:00
Orbit: 411 x 424 km, 51.6° (Epoch: 12 October)

Date Brightness Start Highest point End Pass type
(mag) Time Alt. Az. Time Alt. Az. Time Alt. Az.
15 Oct -1.6 12:50:11 10° S 12:52:59 25° SE 12:55:46 10° ENE visible
16 Oct -0.9 12:03:19 11° SSE 12:04:47 13° SE 12:06:30 10° E visible
17 Oct -3.9 12:50:53 23° SW 12:52:47 85° NW 12:56:07 10° NE visible
18 Oct -2.2 12:05:12 36° E 12:05:12 36° E 12:07:34 10° ENE visible
19 Oct -2.6 12:52:13 26° NW 12:52:35 26° NW 12:55:28 10° NNE visible
20 Oct -1.4 12:06:04 19° NNE 12:06:04 19° NNE 12:07:09 10° NE visible
21 Oct -1.4 12:52:39 12° NNW 12:52:39 12° NNW 12:53:45 10° N visible
